STARLINK-3058, 49138

Orbit data source: Space-Track

STARLINK-3058, 49138 is a payload satellite owned by SpaceX/Seattle (US) in LEO that was launched on Tue, 14 Sep 2021 UTC via an FALCON 9 launch vehicle from the Air Force Western Test Range (AFWTR). Payload-class satellites include a variety of spacecraft equipped with specific instruments for various scientific and technological missions. These include communications satellites like Starlink; space stations such as the ISS; scientific satellites like the Hubble; Earth observation satellites from companies like Planet Labs, Umbra, and HawkEye 360; GPS; miniature CubeSats for education and research; and military/defense satellites.

Loading next visibility...
Identifier
49138, 2021-082J
Orbit
LEO
Country
Flag of USUS
Related business
Manufacturer
SpaceX/Seattle
Mission
Operational Commercial Communications
Bus & Motor
STARLINK, Unknown motor
Mass
297 kg wet, ~275 kg dry
Launch date (UTC)
2021-09-14 (4 years ago)
Launch vehicle
FALCON 9
Launch site
Air Force Western Test Range (AFWTR)
Object type
Payload
Rocket body
Debris
Shape & HBR
Box + 1 Pan, 10.1 m
Radar Cross Section
13.562 m², Large (>1 m²)

Expand to show TLE details & history
Last TLE update: 14 hours ago

TLE from 14 hours ago
0 STARLINK-3058
1 49138U 21082J   26071.98520978  .00000061  00000-0  12890-4 0  9993
2 49138  69.9983 286.1528 0002598 256.7426 103.3444 14.98337928246475
Epoch: 2026-03-12T23:38Z
TLE epoch observation values (Epoch: 2026-03-12T23:38:42.124Z)
Latitude
0.00001°
Longitude
120.85004°
Altitude
574.872 km
Speed
7.573 km/s
True Right ascension
19h 04m 36s
True Declination
0° 00' 00"
Sunlit
Object was in daylight at epoch
Visualization orbit readout
Latitude
Unknown
Longitude
Unknown
Altitude
Unknown
Speed
Unknown
Apparent Right ascension
Unknown
Apparent Declination
Unknown
Sunlit
N/A
Visualization observer readout
Local Sidereal Time
18:28:26
Azimuth
Unknown
Elevation
Unknown
Doppler factor
Unknown
Orbital elements
Apogee altitude
571.785 km
Perigee altitude
568.175 km
Semi-major axis
6,948.117 km
Eccentricity
0.00026
Inclination
69.9983°
RAAN
286.1528°
Arg. of periapsis
256.7426°
True anomaly
103.37336°
Mean anomaly
103.3444°
Eccentric anomaly
103.35888°
Mean motion
3.74751 °/min
Orbital period
96.06 mins
BSTAR
0.00001289
Loading maneuver chart data...
Computing Atmospheric mass density...

Documentation

Showing up to 5 results
|